Regional Weather Roundup
Issued by NWS Green Bay, WI

Home | Current Version | Previous Version | Text Only | Print | Product List | Glossary On
Versions: 1 2 3 4 5 6 7 8 9 10 11 12 13 14 15 16 17 18 19 20 21 22 23 24 25 26 27 28 29 30 31 32 33 34 35 36 37 38 39 40 41 42 43 44 45 46 47 48 49 50
000
ASUS43 KGRB 190859
RWRGRB

NORTH-CENTRAL AND NORTHEAST WISCONSIN REGIONAL WEATHER ROUNDUP
NATIONAL WEATHER SERVICE GREEN BAY WI
400 AM CDT SUN APR 19 2015

WIZ005-009-010>012-018-019-191000-
NORTH CENTRAL WISCONSIN

CITY           SKY/WX    TMP DP  RH WIND       PRES   REMARKS
IRONWOOD       CLOUDY    46  30  53 CALM      29.93R
MANITOWISH WTR NOT AVBL
ARBOR VITAE    NOT AVBL
EAGLE RIVER    NOT AVBL
LAND O LAKES   NOT AVBL
RHINELANDER    MOCLDY    43  26  51 SE10      29.95F
PHILLIPS       NOT AVBL
ANTIGO         NOT AVBL
TOMAHAWK       NOT AVBL
MERRILL        NOT AVBL
$$

WIZ013-073-191000-
NORTHEAST WISCONSIN

CITY           SKY/WX    TMP DP  RH WIND       PRES   REMARKS
IRON MOUNTAIN  CLOUDY    40  26  57 SE6       30.02F
MARINETTE      PTCLDY    41  28  60 E8        30.02F
$$

WIZ017-030-035>037-045-191000-
CENTRAL WISCONSIN

CITY           SKY/WX    TMP DP  RH WIND       PRES   REMARKS
MEDFORD        NOT AVBL
WAUSAU         CLOUDY    46  23  40 SE13      29.93F
MOSINEE        NOT AVBL
MARSHFIELD     CLOUDY    46  34  62 E8        29.91F
WISC RAPIDS    CLOUDY    48  24  39 E8        29.92F
STEVENS POINT  NOT AVBL
WAUPACA        NOT AVBL
SHAWANO        NOT AVBL
CLINTONVILLE   NOT AVBL
$$

WIZ038-039-048-051-191000-
FOX VALLEY

CITY           SKY/WX    TMP DP  RH WIND       PRES   REMARKS
NWS GREEN BAY  PTCLDY    46  25  43 E8        29.99F
APPLETON       NOT AVBL
OSHKOSH        MOCLDY    50  25  37 SE10      29.94F
FOND DU LAC    MOCLDY    49  25  39 SE18G25   29.94F
$$

WIZ022-050-052-191000-
EAST CENTRAL WISCONSIN

CITY           SKY/WX    TMP DP  RH WIND       PRES   REMARKS
STURGEON BAY   PTCLDY    43  25  49 E9        30.04F
MANITOWOC      NOT AVBL
SHEBOYGAN      MOCLDY    44  29  55 SE6       30.00F
$$

LMZ563-521-522-541>543-191000-
LAKESHORE

STATION/POSITION TIME  TEMP    WIND        PRES    VSBY  WAVE
                       AIR SEA DIR/SP/G                  HT/PER
                 (UTC) (F)     (DEG/KT/KT) (MB)    (MI)  (FT/S)
SHEBOYGAN LKSHOR 0800   44     120/  7/  9 1016.7F
KEWAUNEE LKSHORE 0800   42      60/  4/  8 1015.7F
NORTHPORT PIER   0800   40      90/ 10/ 12 1017.9F
SISTER BAY LKSHO 0800   43     110/ 10/ 16   N/A
CHAMBERS ISLAND  0800   43      80/  4/  8 1017.3F
MENOMINEE LKSHOR 0800   42      50/  8/  9 1017.7F
$$


USA.gov is the U.S. government's official web portal to all federal, state and local government web resources and services.